Tracking 30918 objects as of 2-Jul-2025
HD Live streaming from Space Station
objects crossing your sky now

WESTFORD NEEDLES

Track WESTFORD NEEDLES now!
10-day predictions
WESTFORD NEEDLES is classified as:


NORAD ID: 628
Int'l Code: 1963-014F
Perigee: 3,646.5 km
Apogee: 3,685.5 km
Inclination: 87.3 °
Period: 166.8 minutes
Semi major axis: 10036 km
RCS: 0.4773 m2 (medium)
Launch date: May 9, 1963
Source: United States (US)
Launch site: AIR FORCE WESTERN TEST RANGE (AFWTR)
Your satellite tracking list
Your tracking list is empty




NASA's NSSDC Master Catalog

Two Line Element Set (TLE):
1   628U 63014F   25183.10152441  .00000003  00000-0  00000+0 0  9999
2   628  87.3204 236.3779 0019408 101.2109 259.0927  8.63371686959022
Source of the keplerian elements: AFSPC